| time (UTC) | temp F | wind direction | speed MPH | gust MPH | rain 1hr in | rain 24hr in | rain mn in | humidity % | barometer mb |
| 20260510035530 | 52 | 196 | 0.0 | 1.0 | 0.00 | 0.09 | 0.09 | 93 | 1010.4 |
| 20260510035032 | 52 | 195 | 0.0 | 2.0 | 0.00 | 0.09 | 0.09 | 92 | 1010.4 |
| 20260510034529 | 52 | 194 | 0.0 | 2.0 | 0.00 | 0.09 | 0.09 | 93 | 1010.5 |
| 20260510034029 | 51 | 189 | 0.0 | 0.0 | 0.00 | 0.09 | 0.09 | 92 | 1010.4 |
| 20260510033529 | 51 | 186 | 0.0 | 0.0 | 0.00 | 0.09 | 0.09 | 91 | 1010.4 |
| 20260510033029 | 51 | 188 | 0.0 | 0.0 | 0.00 | 0.09 | 0.09 | 91 | 1010.4 |
| 20260510032528 | 51 | 186 | 0.0 | 1.0 | 0.00 | 0.09 | 0.09 | 91 | 1010.4 |
| 20260510032028 | 51 | 184 | 0.0 | 1.0 | 0.00 | 0.09 | 0.09 | 91 | 1010.5 |
| 20260510031539 | 52 | 184 | 0.0 | 0.0 | 0.00 | 0.09 | 0.09 | 90 | 1010.5 |
| 20260510031028 | 52 | 184 | 0.0 | 0.0 | 0.00 | 0.09 | 0.09 | 90 | 1010.6 |
| 20260510030526 | 52 | 181 | 0.0 | 0.0 | 0.00 | 0.09 | 0.09 | 90 | 1010.5 |
| 20260510030026 | 52 | 184 | 0.0 | 0.0 | 0.00 | 0.09 | 0.09 | 90 | 1010.6 |
| 20260510025525 | 52 | 181 | 0.0 | 0.0 | 0.00 | 0.09 | 0.09 | 89 | 1010.5 |
| 20260510025025 | 52 | 187 | 0.0 | 0.0 | 0.00 | 0.09 | 0.09 | 89 | 1010.4 |
| 20260510024535 | 53 | 188 | 0.0 | 0.0 | 0.00 | 0.09 | 0.09 | 89 | 1010.4 |
| 20260510024124 | 53 | 190 | 0.0 | 0.0 | 0.00 | 0.09 | 0.09 | 89 | 1010.3 |
| 20260510023524 | 53 | 190 | 0.0 | 2.0 | 0.00 | 0.09 | 0.09 | 90 | 1010.3 |
| 20260510023024 | 53 | 190 | 0.0 | 2.0 | 0.00 | 0.09 | 0.09 | 90 | 1010.2 |
| 20260510022527 | 53 | 186 | 0.0 | 1.0 | 0.00 | 0.09 | 0.09 | 89 | 1010.0 |
| 20260510022024 | 53 | 186 | 0.0 | 0.0 | 0.00 | 0.09 | 0.09 | 88 | 1009.9 |
| 20260510021525 | 53 | 190 | 0.0 | 0.0 | 0.00 | 0.09 | 0.09 | 88 | 1010.1 |
| 20260510021022 | 54 | 188 | 0.0 | 0.0 | 0.00 | 0.09 | 0.09 | 87 | 1010.1 |
| 20260510020522 | 54 | 182 | 0.0 | 1.0 | 0.00 | 0.09 | 0.09 | 88 | 1010.1 |
| 20260510020022 | 54 | 177 | 0.0 | 1.0 | 0.00 | 0.09 | 0.09 | 87 | 1010.1 |
| 20260510015521 | 54 | 360 | 0.0 | 1.0 | 0.00 | 0.09 | 0.09 | 87 | 1010.0 |
| 20260510015021 | 54 | 360 | 0.0 | 1.0 | 0.00 | 0.09 | 0.09 | 87 | 1010.0 |
| 20260510014521 | 55 | 360 | 0.0 | 1.0 | 0.00 | 0.09 | 0.09 | 86 | 1009.9 |
| 20260510014022 | 55 | 177 | 0.0 | 0.0 | 0.00 | 0.09 | 0.09 | 86 | 1009.9 |
| 20260510013522 | 55 | 177 | 0.0 | 0.0 | 0.00 | 0.09 | 0.09 | 86 | 1009.8 |
| 20260510013021 | 55 | 179 | 0.0 | 0.0 | 0.00 | 0.09 | 0.09 | 85 | 1009.8 |
| 20260510012521 | 55 | 175 | 0.0 | 0.0 | 0.00 | 0.09 | 0.09 | 84 | 1009.8 |
| 20260510012021 | 55 | 360 | 0.0 | 0.0 | 0.00 | 0.09 | 0.09 | 84 | 1009.7 |
| 20260510011533 | 56 | 360 | 0.0 | 0.0 | 0.00 | 0.09 | 0.09 | 83 | 1009.7 |
| 20260510011019 | 56 | 360 | 0.0 | 0.0 | 0.00 | 0.09 | 0.09 | 83 | 1009.6 |
| 20260510010520 | 57 | 360 | 0.0 | 0.0 | 0.00 | 0.09 | 0.09 | 82 | 1009.4 |
| 20260510010020 | 57 | 360 | 0.0 | 0.0 | 0.00 | 0.09 | 0.09 | 81 | 1009.3 |
| 20260510005520 | 58 | 360 | 0.0 | 0.0 | 0.00 | 0.09 | 0.09 | 80 | 1009.3 |
| 20260510005020 | 58 | 360 | 0.0 | 0.0 | 0.00 | 0.09 | 0.09 | 79 | 1009.2 |
| 20260510004520 | 59 | 360 | 0.0 | 0.0 | 0.00 | 0.09 | 0.09 | 78 | 1009.2 |
| 20260510004021 | 59 | 360 | 0.0 | 0.0 | 0.00 | 0.09 | 0.09 | 77 | 1009.2 |
| 20260510003519 | 59 | 360 | 0.0 | 2.0 | 0.00 | 0.09 | 0.09 | 76 | 1009.1 |
| 20260510003046 | 60 | 360 | 0.0 | 2.0 | 0.00 | 0.09 | 0.09 | 76 | 1009.2 |
| 20260510002524 | 60 | 360 | 0.0 | 1.0 | 0.00 | 0.09 | 0.09 | 75 | 1009.1 |
| 20260510002019 | 60 | 360 | 0.0 | 2.0 | 0.00 | 0.09 | 0.09 | 75 | 1009.1 |
| 20260510001518 | 60 | 360 | 0.0 | 2.0 | 0.00 | 0.09 | 0.09 | 74 | 1009.0 |
| 20260510001019 | 61 | 360 | 0.0 | 2.0 | 0.00 | 0.09 | 0.09 | 73 | 1008.9 |
| 20260510000519 | 61 | 360 | 0.0 | 2.0 | 0.00 | 0.09 | 0.09 | 73 | 1008.9 |
| 20260510000021 | 61 | 360 | 0.0 | 4.0 | 0.00 | 0.09 | 0.09 | 73 | 1008.8 |
| 20260509235521 | 61 | 360 | 0.0 | 4.0 | 0.00 | 0.09 | 0.09 | 73 | 1008.8 |
| 20260509235018 | 62 | 360 | 0.0 | 2.0 | 0.00 | 0.09 | 0.09 | 72 | 1008.7 |
| 20260509234527 | 62 | 360 | 0.0 | 1.0 | 0.00 | 0.09 | 0.09 | 72 | 1008.8 |
| 20260509234018 | 62 | 360 | 0.0 | 3.0 | 0.00 | 0.09 | 0.09 | 71 | 1008.8 |
| 20260509233517 | 62 | 360 | 0.0 | 5.0 | 0.00 | 0.09 | 0.09 | 71 | 1008.7 |
| 20260509233022 | 62 | 360 | 1.0 | 5.0 | 0.00 | 0.09 | 0.09 | 70 | 1008.8 |
| 20260509232521 | 62 | 360 | 1.0 | 4.0 | 0.00 | 0.09 | 0.09 | 70 | 1008.7 |
| 20260509232018 | 62 | 360 | 1.0 | 3.0 | 0.00 | 0.09 | 0.09 | 70 | 1008.7 |
| 20260509231528 | 63 | 360 | 0.0 | 2.0 | 0.00 | 0.09 | 0.09 | 71 | 1008.7 |
| 20260509231019 | 63 | 360 | 0.0 | 4.0 | 0.00 | 0.09 | 0.09 | 71 | 1008.7 |
| 20260509230516 | 63 | 360 | 1.0 | 4.0 | 0.00 | 0.09 | 0.09 | 71 | 1008.7 |
| 20260509230023 | 63 | 360 | 0.0 | 3.0 | 0.00 | 0.09 | 0.09 | 72 | 1008.8 |
| 20260509225517 | 63 | 360 | 1.0 | 4.0 | 0.00 | 0.09 | 0.09 | 72 | 1008.8 |
| 20260509225016 | 63 | 360 | 1.0 | 4.0 | 0.00 | 0.09 | 0.09 | 72 | 1008.8 |
| 20260509224518 | 63 | 360 | 1.0 | 3.0 | 0.00 | 0.09 | 0.09 | 72 | 1008.8 |
| 20260509224015 | 63 | 360 | 1.0 | 3.0 | 0.00 | 0.09 | 0.09 | 72 | 1008.8 |
| 20260509223516 | 63 | 360 | 0.0 | 2.0 | 0.00 | 0.09 | 0.09 | 70 | 1008.9 |
| 20260509223016 | 63 | 360 | 0.0 | 2.0 | 0.00 | 0.09 | 0.09 | 70 | 1008.9 |
| 20260509222518 | 63 | 360 | 0.0 | 4.0 | 0.00 | 0.09 | 0.09 | 70 | 1008.9 |
| 20260509222015 | 63 | 360 | 2.0 | 4.0 | 0.00 | 0.09 | 0.09 | 69 | 1008.8 |
| 20260509221515 | 63 | 360 | 2.0 | 4.0 | 0.00 | 0.09 | 0.09 | 69 | 1008.8 |
| 20260509221015 | 63 | 360 | 2.0 | 4.0 | 0.00 | 0.09 | 0.09 | 68 | 1008.8 |
| 20260509220514 | 63 | 360 | 1.0 | 4.0 | 0.00 | 0.09 | 0.09 | 68 | 1008.8 |
| 20260509220014 | 63 | 360 | 1.0 | 4.0 | 0.00 | 0.09 | 0.09 | 68 | 1008.9 |
| 20260509215513 | 63 | 360 | 1.0 | 4.0 | 0.00 | 0.09 | 0.09 | 68 | 1008.8 |
| 20260509215013 | 63 | 360 | 1.0 | 4.0 | 0.00 | 0.09 | 0.09 | 68 | 1008.9 |
| 20260509214511 | 63 | 360 | 0.0 | 3.0 | 0.00 | 0.09 | 0.09 | 67 | 1008.9 |
| 20260509214012 | 63 | 360 | 1.0 | 3.0 | 0.00 | 0.09 | 0.09 | 66 | 1009.0 |
| 20260509213516 | 63 | 360 | 0.0 | 3.0 | 0.00 | 0.09 | 0.09 | 67 | 1009.1 |
| 20260509213012 | 63 | 360 | 0.0 | 4.0 | 0.00 | 0.09 | 0.09 | 68 | 1009.1 |
| 20260509212511 | 63 | 360 | 2.0 | 4.0 | 0.00 | 0.09 | 0.09 | 67 | 1009.2 |
| 20260509212013 | 63 | 360 | 0.0 | 3.0 | 0.00 | 0.09 | 0.09 | 68 | 1009.3 |
| 20260509211510 | 63 | 360 | 0.0 | 3.0 | 0.00 | 0.09 | 0.09 | 67 | 1009.3 |
| 20260509211010 | 63 | 360 | 0.0 | 3.0 | 0.00 | 0.09 | 0.09 | 67 | 1009.3 |
| 20260509210511 | 63 | 360 | 0.0 | 1.0 | 0.00 | 0.09 | 0.09 | 69 | 1009.4 |
| 20260509210014 | 63 | 360 | 0.0 | 2.0 | 0.00 | 0.09 | 0.09 | 68 | 1009.4 |
| 20260509205510 | 63 | 360 | 0.0 | 3.0 | 0.00 | 0.09 | 0.09 | 67 | 1009.2 |
| 20260509205010 | 63 | 360 | 1.0 | 4.0 | 0.00 | 0.09 | 0.09 | 67 | 1009.1 |
| 20260509204510 | 63 | 360 | 1.0 | 4.0 | 0.00 | 0.09 | 0.09 | 68 | 1009.1 |
| 20260509204012 | 63 | 360 | 0.0 | 3.0 | 0.00 | 0.09 | 0.09 | 67 | 1009.1 |
| 20260509203510 | 63 | 360 | 1.0 | 3.0 | 0.00 | 0.09 | 0.09 | 68 | 1009.2 |
| 20260509203009 | 63 | 360 | 0.0 | 1.0 | 0.00 | 0.09 | 0.09 | 66 | 1009.1 |
| 20260509202509 | 63 | 360 | 0.0 | 2.0 | 0.00 | 0.09 | 0.09 | 70 | 1009.2 |
| 20260509202010 | 63 | 360 | 0.0 | 3.0 | 0.00 | 0.09 | 0.09 | 66 | 1009.1 |
| 20260509201509 | 63 | 360 | 0.0 | 3.0 | 0.00 | 0.09 | 0.09 | 68 | 1009.3 |
| 20260509201007 | 63 | 360 | 0.0 | 2.0 | 0.00 | 0.09 | 0.09 | 67 | 1009.3 |
| 20260509200507 | 63 | 360 | 0.0 | 2.0 | 0.00 | 0.09 | 0.09 | 68 | 1009.3 |
| 20260509200008 | 63 | 360 | 0.0 | 3.0 | 0.00 | 0.09 | 0.09 | 69 | 1009.4 |
| 20260509195508 | 63 | 360 | 1.0 | 4.0 | 0.00 | 0.09 | 0.09 | 67 | 1009.3 |
| 20260509195005 | 63 | 360 | 2.0 | 4.0 | 0.00 | 0.09 | 0.09 | 68 | 1009.4 |
| 20260509194510 | 63 | 232 | 0.0 | 4.0 | 0.00 | 0.09 | 0.09 | 67 | 1009.4 |
| 20260509194006 | 63 | 232 | 1.0 | 4.0 | 0.00 | 0.09 | 0.09 | 66 | 1009.5 |
| 20260509193504 | 64 | 232 | 2.0 | 4.0 | 0.00 | 0.09 | 0.09 | 64 | 1009.4 |
| 20260509193005 | 64 | 178 | 1.0 | 4.0 | 0.00 | 0.09 | 0.09 | 65 | 1009.6 |
| 20260509192503 | 63 | 179 | 1.0 | 4.0 | 0.00 | 0.09 | 0.09 | 71 | 1009.7 |
| 20260509192003 | 63 | 178 | 1.0 | 2.0 | 0.00 | 0.09 | 0.09 | 69 | 1009.8 |
| 20260509191503 | 62 | 178 | 1.0 | 3.0 | 0.00 | 0.09 | 0.09 | 68 | 1009.9 |
| 20260509191003 | 63 | 360 | 2.0 | 3.0 | 0.00 | 0.09 | 0.09 | 70 | 1010.0 |
| 20260509190603 | 62 | 159 | 0.0 | 3.0 | 0.00 | 0.09 | 0.09 | 75 | 1009.9 |
| 20260509190100 | 62 | 162 | 0.0 | 3.0 | 0.00 | 0.09 | 0.09 | 73 | 1009.8 |
| 20260509185559 | 61 | 165 | 0.0 | 4.0 | 0.00 | 0.09 | 0.09 | 74 | 1009.9 |
| 20260509185059 | 61 | 165 | 0.0 | 4.0 | 0.00 | 0.09 | 0.09 | 72 | 1009.9 |
| 20260509184602 | 61 | 163 | 1.0 | 5.0 | 0.00 | 0.09 | 0.09 | 74 | 1010.0 |
| 20260509184057 | 61 | 59 | 2.0 | 5.0 | 0.00 | 0.09 | 0.09 | 75 | 1010.1 |
| 20260509183559 | 61 | 58 | 2.0 | 5.0 | 0.00 | 0.09 | 0.09 | 75 | 1010.1 |
| 20260509183135 | 60 | 171 | 1.0 | 3.0 | 0.00 | 0.09 | 0.09 | 78 | 1010.3 |
| 20260509182554 | 60 | 171 | 1.0 | 4.0 | 0.00 | 0.09 | 0.09 | 78 | 1010.4 |
| 20260509182053 | 59 | 171 | 1.0 | 4.0 | 0.00 | 0.09 | 0.09 | 77 | 1010.5 |
| 20260509181608 | 59 | 173 | 1.0 | 5.0 | 0.00 | 0.09 | 0.09 | 79 | 1010.7 |
| 20260509181052 | 59 | 175 | 2.0 | 5.0 | 0.00 | 0.09 | 0.09 | 79 | 1010.9 |
| 20260509180552 | 59 | 121 | 0.0 | 2.0 | 0.00 | 0.09 | 0.09 | 82 | 1010.8 |
| 20260509180052 | 58 | 121 | 0.0 | 3.0 | 0.00 | 0.09 | 0.09 | 81 | 1010.8 |
| 20260509175550 | 58 | 121 | 1.0 | 3.0 | 0.00 | 0.09 | 0.09 | 81 | 1011.0 |
| 20260509175051 | 58 | 121 | 0.0 | 3.0 | 0.00 | 0.09 | 0.09 | 82 | 1011.0 |
| 20260509174553 | 57 | 121 | 0.0 | 3.0 | 0.00 | 0.09 | 0.09 | 82 | 1011.0 |
| 20260509174050 | 57 | 119 | 0.0 | 2.0 | 0.00 | 0.09 | 0.09 | 82 | 1010.9 |
| 20260509173554 | 57 | 119 | 0.0 | 4.0 | 0.00 | 0.09 | 0.09 | 81 | 1010.9 |
| 20260509173056 | 57 | 118 | 1.0 | 4.0 | 0.00 | 0.09 | 0.09 | 81 | 1010.9 |
| 20260509172550 | 57 | 175 | 1.0 | 3.0 | 0.00 | 0.09 | 0.09 | 81 | 1010.9 |
| 20260509172051 | 57 | 178 | 0.0 | 3.0 | 0.00 | 0.09 | 0.09 | 83 | 1010.9 |
| 20260509171552 | 57 | 177 | 0.0 | 4.0 | 0.00 | 0.09 | 0.09 | 83 | 1010.9 |
| 20260509171052 | 57 | 174 | 1.0 | 4.0 | 0.00 | 0.09 | 0.09 | 81 | 1011.1 |
| 20260509170549 | 57 | 174 | 1.0 | 4.0 | 0.00 | 0.09 | 0.09 | 80 | 1011.2 |
| 20260509170053 | 57 | 174 | 0.0 | 2.0 | 0.00 | 0.09 | 0.09 | 82 | 1011.1 |
| 20260509165549 | 57 | 174 | 0.0 | 2.0 | 0.00 | 0.09 | 0.09 | 82 | 1011.1 |
| 20260509165049 | 57 | 174 | 0.0 | 2.0 | 0.00 | 0.09 | 0.09 | 83 | 1011.1 |
| 20260509164556 | 57 | 173 | 0.0 | 2.0 | 0.00 | 0.09 | 0.09 | 81 | 1011.1 |
| 20260509164048 | 57 | 173 | 0.0 | 3.0 | 0.00 | 0.09 | 0.09 | 82 | 1011.1 |
| 20260509163548 | 57 | 172 | 0.0 | 3.0 | 0.00 | 0.09 | 0.09 | 83 | 1011.2 |
| 20260509163049 | 57 | 177 | 0.0 | 2.0 | 0.00 | 0.09 | 0.09 | 84 | 1011.4 |
| 20260509162548 | 57 | 176 | 0.0 | 3.0 | 0.00 | 0.09 | 0.09 | 84 | 1011.4 |
| 20260509162048 | 57 | 177 | 0.0 | 4.0 | 0.00 | 0.09 | 0.09 | 83 | 1011.4 |
| 20260509161547 | 57 | 176 | 0.0 | 5.0 | 0.00 | 0.09 | 0.09 | 87 | 1011.4 |
| 20260509161047 | 57 | 176 | 2.0 | 5.0 | 0.01 | 0.09 | 0.09 | 87 | 1011.5 |
| 20260509160547 | 56 | 196 | 1.0 | 6.0 | 0.01 | 0.09 | 0.09 | 89 | 1011.5 |
| 20260509160047 | 56 | 160 | 1.0 | 5.0 | 0.02 | 0.09 | 0.09 | 88 | 1011.4 |
| 20260509155546 | 56 | 190 | 2.0 | 5.0 | 0.02 | 0.09 | 0.09 | 88 | 1011.6 |
| 20260509155046 | 56 | 194 | 2.0 | 5.0 | 0.04 | 0.09 | 0.09 | 89 | 1011.6 |
| 20260509154553 | 55 | 190 | 1.0 | 4.0 | 0.05 | 0.09 | 0.09 | 88 | 1011.5 |
| 20260509154047 | 55 | 190 | 0.0 | 2.0 | 0.07 | 0.09 | 0.09 | 88 | 1011.2 |
| 20260509153546 | 55 | 190 | 1.0 | 2.0 | 0.08 | 0.09 | 0.09 | 88 | 1011.2 |
| 20260509153046 | 55 | 190 | 0.0 | 2.0 | 0.08 | 0.09 | 0.09 | 88 | 1011.0 |
| 20260509152549 | 55 | 191 | 0.0 | 2.0 | 0.09 | 0.09 | 0.09 | 89 | 1011.2 |
| 20260509152046 | 55 | 191 | 0.0 | 2.0 | 0.09 | 0.09 | 0.09 | 89 | 1011.3 |
| 20260509151546 | 55 | 190 | 0.0 | 2.0 | 0.09 | 0.09 | 0.09 | 88 | 1011.4 |
| 20260509151044 | 55 | 191 | 0.0 | 2.0 | 0.08 | 0.08 | 0.08 | 87 | 1011.4 |
| 20260509150543 | 55 | 191 | 0.0 | 1.0 | 0.08 | 0.08 | 0.08 | 85 | 1011.4 |
| 20260509150043 | 55 | 191 | 0.0 | 1.0 | 0.07 | 0.07 | 0.07 | 84 | 1011.5 |
| 20260509145543 | 56 | 191 | 0.0 | 1.0 | 0.06 | 0.06 | 0.06 | 84 | 1011.5 |
| 20260509145043 | 56 | 191 | 0.0 | 0.0 | 0.05 | 0.05 | 0.05 | 83 | 1011.6 |
| 20260509144542 | 56 | 189 | 0.0 | 0.0 | 0.04 | 0.04 | 0.04 | 80 | 1011.7 |
| 20260509144041 | 57 | 190 | 0.0 | 1.0 | 0.02 | 0.02 | 0.02 | 78 | 1011.8 |
| 20260509143541 | 57 | 192 | 0.0 | 1.0 | 0.01 | 0.01 | 0.01 | 78 | 1011.8 |
| 20260509143042 | 57 | 192 | 0.0 | 2.0 | 0.00 | 0.00 | 0.00 | 76 | 1011.9 |
| 20260509142539 | 57 | 191 | 0.0 | 6.0 | 0.00 | 0.00 | 0.00 | 75 | 1011.9 |
| 20260509142041 | 57 | 188 | 1.0 | 6.0 | 0.00 | 0.00 | 0.00 | 72 | 1011.9 |
| 20260509141539 | 58 | 199 | 0.0 | 4.0 | 0.00 | 0.00 | 0.00 | 71 | 1011.8 |
| 20260509141038 | 58 | 198 | 1.0 | 4.0 | 0.00 | 0.00 | 0.00 | 69 | 1011.7 |
| 20260509140537 | 58 | 196 | 0.0 | 2.0 | 0.00 | 0.00 | 0.00 | 68 | 1011.7 |
| 20260509140041 | 58 | 197 | 0.0 | 5.0 | 0.00 | 0.00 | 0.00 | 66 | 1011.5 |
| 20260509135540 | 58 | 197 | 1.0 | 5.0 | 0.00 | 0.00 | 0.00 | 66 | 1011.5 |
| 20260509135038 | 58 | 204 | 2.0 | 4.0 | 0.00 | 0.00 | 0.00 | 65 | 1011.4 |
| 20260509134538 | 58 | 207 | 1.0 | 4.0 | 0.00 | 0.00 | 0.00 | 67 | 1011.3 |
| 20260509134036 | 58 | 212 | 1.0 | 3.0 | 0.00 | 0.00 | 0.00 | 67 | 1011.3 |
| 20260509133536 | 58 | 213 | 1.0 | 3.0 | 0.00 | 0.00 | 0.00 | 66 | 1011.2 |
| 20260509133035 | 58 | 215 | 0.0 | 3.0 | 0.00 | 0.00 | 0.00 | 66 | 1010.9 |
| 20260509132534 | 57 | 216 | 0.0 | 3.0 | 0.00 | 0.00 | 0.00 | 66 | 1010.9 |
| 20260509132033 | 57 | 209 | 1.0 | 5.0 | 0.00 | 0.00 | 0.00 | 66 | 1011.0 |
| 20260509131532 | 57 | 209 | 1.0 | 5.0 | 0.00 | 0.00 | 0.00 | 65 | 1011.0 |
| 20260509131032 | 57 | 194 | 2.0 | 5.0 | 0.00 | 0.00 | 0.00 | 64 | 1010.9 |
| 20260509130534 | 57 | 188 | 1.0 | 5.0 | 0.00 | 0.00 | 0.00 | 66 | 1011.1 |
| 20260509130031 | 57 | 229 | 0.0 | 4.0 | 0.00 | 0.00 | 0.00 | 65 | 1011.0 |
| 20260509125530 | 57 | 229 | 0.0 | 4.0 | 0.00 | 0.00 | 0.00 | 66 | 1010.9 |
| 20260509125032 | 57 | 221 | 0.0 | 4.0 | 0.00 | 0.00 | 0.00 | 66 | 1011.0 |
| 20260509124530 | 56 | 224 | 1.0 | 3.0 | 0.00 | 0.00 | 0.00 | 66 | 1011.0 |
| 20260509124030 | 56 | 224 | 0.0 | 2.0 | 0.00 | 0.00 | 0.00 | 66 | 1010.8 |
| 20260509123529 | 56 | 225 | 1.0 | 3.0 | 0.00 | 0.00 | 0.00 | 66 | 1010.9 |
| 20260509123030 | 56 | 225 | 0.0 | 3.0 | 0.00 | 0.00 | 0.00 | 66 | 1011.0 |
| 20260509122529 | 56 | 225 | 0.0 | 3.0 | 0.00 | 0.00 | 0.00 | 66 | 1011.0 |
| 20260509122029 | 56 | 225 | 0.0 | 3.0 | 0.00 | 0.00 | 0.00 | 66 | 1011.0 |
| 20260509121533 | 56 | 225 | 0.0 | 4.0 | 0.00 | 0.00 | 0.00 | 66 | 1011.1 |
| 20260509121028 | 56 | 226 | 1.0 | 5.0 | 0.00 | 0.00 | 0.00 | 66 | 1011.1 |
| 20260509120529 | 56 | 232 | 2.0 | 5.0 | 0.00 | 0.00 | 0.00 | 67 | 1011.2 |
| 20260509120029 | 56 | 132 | 0.0 | 3.0 | 0.00 | 0.00 | 0.00 | 67 | 1010.9 |
| 20260509115528 | 56 | 84 | 0.0 | 2.0 | 0.00 | 0.00 | 0.00 | 68 | 1011.0 |
| 20260509115028 | 56 | 82 | 0.0 | 2.0 | 0.00 | 0.00 | 0.00 | 68 | 1011.0 |
| 20260509114528 | 56 | 82 | 0.0 | 2.0 | 0.00 | 0.00 | 0.00 | 67 | 1010.9 |
| 20260509114027 | 56 | 82 | 0.0 | 1.0 | 0.00 | 0.00 | 0.00 | 66 | 1011.0 |
| 20260509113530 | 56 | 82 | 0.0 | 2.0 | 0.00 | 0.00 | 0.00 | 66 | 1010.6 |
| 20260509113029 | 56 | 238 | 0.0 | 2.0 | 0.00 | 0.00 | 0.00 | 66 | 1010.5 |
| 20260509112527 | 56 | 238 | 0.0 | 1.0 | 0.00 | 0.00 | 0.00 | 67 | 1010.4 |
| 20260509112027 | 55 | 238 | 0.0 | 2.0 | 0.00 | 0.00 | 0.00 | 66 | 1010.4 |
| 20260509111528 | 55 | 238 | 0.0 | 2.0 | 0.00 | 0.00 | 0.00 | 66 | 1010.5 |
| 20260509111027 | 55 | 238 | 0.0 | 2.0 | 0.00 | 0.00 | 0.00 | 66 | 1010.5 |
| 20260509110526 | 55 | 238 | 0.0 | 2.0 | 0.00 | 0.00 | 0.00 | 66 | 1010.4 |
| 20260509110028 | 55 | 238 | 0.0 | 3.0 | 0.00 | 0.00 | 0.00 | 66 | 1010.4 |
| 20260509105528 | 55 | 239 | 1.0 | 3.0 | 0.00 | 0.00 | 0.00 | 66 | 1010.5 |
| 20260509105026 | 55 | 240 | 1.0 | 5.0 | 0.00 | 0.00 | 0.00 | 66 | 1010.4 |
| 20260509104535 | 55 | 244 | 0.0 | 5.0 | 0.00 | 0.00 | 0.00 | 66 | 1010.3 |
| 20260509104027 | 55 | 209 | 0.0 | 3.0 | 0.00 | 0.00 | 0.00 | 66 | 1010.3 |
| 20260509103525 | 55 | 209 | 0.0 | 1.0 | 0.00 | 0.00 | 0.00 | 67 | 1010.2 |
| 20260509103025 | 55 | 209 | 0.0 | 1.0 | 0.00 | 0.00 | 0.00 | 66 | 1010.3 |
| 20260509102525 | 55 | 209 | 0.0 | 2.0 | 0.00 | 0.00 | 0.00 | 66 | 1010.4 |
| 20260509102026 | 54 | 209 | 0.0 | 2.0 | 0.00 | 0.00 | 0.00 | 66 | 1010.3 |
| 20260509101530 | 54 | 209 | 1.0 | 2.0 | 0.00 | 0.00 | 0.00 | 66 | 1010.3 |
| 20260509101026 | 54 | 209 | 0.0 | 1.0 | 0.00 | 0.00 | 0.00 | 66 | 1010.3 |
| 20260509100524 | 55 | 209 | 0.0 | 1.0 | 0.00 | 0.00 | 0.00 | 66 | 1010.3 |
| 20260509100024 | 55 | 209 | 0.0 | 1.0 | 0.00 | 0.00 | 0.00 | 66 | 1010.3 |
| 20260509095524 | 55 | 209 | 0.0 | 2.0 | 0.00 | 0.00 | 0.00 | 66 | 1010.3 |
| 20260509095025 | 55 | 209 | 0.0 | 3.0 | 0.00 | 0.00 | 0.00 | 66 | 1010.2 |
| 20260509094523 | 55 | 209 | 0.0 | 3.0 | 0.00 | 0.00 | 0.00 | 66 | 1010.3 |
| 20260509094025 | 55 | 209 | 0.0 | 2.0 | 0.00 | 0.00 | 0.00 | 66 | 1010.2 |
| 20260509093526 | 55 | 209 | 0.0 | 3.0 | 0.00 | 0.00 | 0.00 | 65 | 1010.2 |
| 20260509093035 | 55 | 209 | 0.0 | 3.0 | 0.00 | 0.00 | 0.00 | 65 | 1010.3 |
| 20260509092523 | 55 | 208 | 0.0 | 2.0 | 0.00 | 0.00 | 0.00 | 66 | 1010.3 |
| 20260509092022 | 55 | 208 | 0.0 | 2.0 | 0.00 | 0.00 | 0.00 | 66 | 1010.4 |
| 20260509091522 | 55 | 208 | 0.0 | 3.0 | 0.00 | 0.00 | 0.00 | 66 | 1010.4 |
| 20260509091023 | 55 | 208 | 0.0 | 3.0 | 0.00 | 0.00 | 0.00 | 66 | 1010.4 |
| 20260509090523 | 55 | 208 | 0.0 | 3.0 | 0.00 | 0.00 | 0.00 | 65 | 1010.4 |
| 20260509090021 | 55 | 208 | 0.0 | 3.0 | 0.00 | 0.00 | 0.00 | 66 | 1010.6 |
| 20260509085525 | 55 | 209 | 1.0 | 3.0 | 0.00 | 0.00 | 0.00 | 65 | 1010.5 |
| 20260509085020 | 55 | 209 | 0.0 | 5.0 | 0.00 | 0.00 | 0.00 | 66 | 1010.6 |
| 20260509084530 | 55 | 200 | 1.0 | 4.0 | 0.00 | 0.00 | 0.00 | 65 | 1010.6 |
| 20260509084018 | 55 | 200 | 0.0 | 3.0 | 0.00 | 0.00 | 0.00 | 66 | 1010.6 |
| 20260509083518 | 55 | 200 | 1.0 | 4.0 | 0.00 | 0.00 | 0.00 | 66 | 1010.7 |
| 20260509083022 | 54 | 200 | 1.0 | 4.0 | 0.00 | 0.00 | 0.00 | 68 | 1010.8 |
| 20260509082520 | 54 | 196 | 1.0 | 4.0 | 0.00 | 0.00 | 0.00 | 69 | 1010.8 |
| 20260509082018 | 54 | 196 | 0.0 | 1.0 | 0.00 | 0.00 | 0.00 | 69 | 1010.9 |
| 20260509081533 | 54 | 196 | 0.0 | 3.0 | 0.00 | 0.00 | 0.00 | 69 | 1010.8 |
| 20260509081018 | 54 | 196 | 0.0 | 3.0 | 0.00 | 0.00 | 0.00 | 69 | 1010.8 |
| 20260509080517 | 54 | 196 | 0.0 | 2.0 | 0.00 | 0.00 | 0.00 | 70 | 1010.8 |
| 20260509080028 | 54 | 196 | 0.0 | 1.0 | 0.00 | 0.00 | 0.00 | 72 | 1010.8 |
| 20260509075521 | 54 | 196 | 0.0 | 0.0 | 0.00 | 0.00 | 0.00 | 72 | 1010.8 |
| 20260509075017 | 54 | 196 | 0.0 | 0.0 | 0.00 | 0.00 | 0.00 | 70 | 1010.7 |
| 20260509074517 | 55 | 196 | 0.0 | 0.0 | 0.00 | 0.00 | 0.00 | 69 | 1010.7 |
| 20260509074018 | 55 | 196 | 0.0 | 0.0 | 0.00 | 0.00 | 0.00 | 69 | 1010.7 |
| 20260509073516 | 55 | 196 | 0.0 | 0.0 | 0.00 | 0.00 | 0.00 | 68 | 1010.7 |
| 20260509073017 | 55 | 196 | 0.0 | 1.0 | 0.00 | 0.00 | 0.00 | 69 | 1010.7 |
| 20260509072516 | 55 | 197 | 0.0 | 2.0 | 0.00 | 0.00 | 0.00 | 67 | 1010.7 |
| 20260509072016 | 55 | 197 | 0.0 | 3.0 | 0.00 | 0.00 | 0.00 | 67 | 1010.8 |
| 20260509071515 | 55 | 196 | 0.0 | 3.0 | 0.00 | 0.00 | 0.00 | 68 | 1010.7 |
| 20260509071015 | 55 | 196 | 0.0 | 4.0 | 0.00 | 0.00 | 0.00 | 68 | 1010.9 |
| 20260509070515 | 55 | 188 | 1.0 | 4.0 | 0.00 | 0.00 | 0.00 | 69 | 1010.9 |
| 20260509070017 | 55 | 189 | 0.0 | 0.0 | 0.00 | 0.00 | 0.00 | 69 | 1010.8 |
| 20260509065515 | 55 | 189 | 0.0 | 0.0 | 0.00 | 0.00 | 0.00 | 69 | 1010.9 |
| 20260509065015 | 55 | 189 | 0.0 | 0.0 | 0.00 | 0.00 | 0.00 | 69 | 1010.9 |
| 20260509064515 | 56 | 189 | 0.0 | 2.0 | 0.00 | 0.00 | 0.00 | 68 | 1011.0 |
| 20260509064014 | 56 | 189 | 0.0 | 3.0 | 0.00 | 0.00 | 0.00 | 67 | 1011.1 |
| 20260509063514 | 56 | 189 | 0.0 | 3.0 | 0.00 | 0.00 | 0.00 | 67 | 1011.0 |
| 20260509063014 | 56 | 189 | 0.0 | 2.0 | 0.00 | 0.00 | 0.00 | 67 | 1011.0 |
| 20260509062514 | 56 | 189 | 0.0 | 3.0 | 0.00 | 0.00 | 0.00 | 67 | 1011.0 |
| 20260509062017 | 56 | 188 | 1.0 | 6.0 | 0.00 | 0.00 | 0.00 | 67 | 1010.8 |
| 20260509061516 | 56 | 188 | 2.0 | 6.0 | 0.00 | 0.00 | 0.00 | 67 | 1010.7 |
| 20260509061018 | 56 | 194 | 1.0 | 5.0 | 0.00 | 0.00 | 0.00 | 67 | 1010.7 |
| 20260509060515 | 56 | 198 | 1.0 | 5.0 | 0.00 | 0.00 | 0.00 | 68 | 1010.7 |
| 20260509060012 | 56 | 199 | 1.0 | 4.0 | 0.00 | 0.00 | 0.00 | 67 | 1010.7 |
| 20260509055513 | 56 | 198 | 1.0 | 6.0 | 0.00 | 0.00 | 0.00 | 68 | 1010.9 |
| 20260509055011 | 56 | 199 | 2.0 | 6.0 | 0.00 | 0.00 | 0.00 | 68 | 1011.0 |
| 20260509054509 | 56 | 169 | 2.0 | 6.0 | 0.00 | 0.00 | 0.00 | 67 | 1011.2 |
| 20260509054009 | 56 | 170 | 1.0 | 4.0 | 0.00 | 0.00 | 0.00 | 67 | 1011.2 |
| 20260509053508 | 56 | 175 | 1.0 | 3.0 | 0.00 | 0.00 | 0.00 | 67 | 1011.3 |
| 20260509053018 | 56 | 158 | 0.0 | 4.0 | 0.00 | 0.00 | 0.00 | 67 | 1011.4 |
| 20260509052507 | 55 | 156 | 1.0 | 4.0 | 0.00 | 0.00 | 0.00 | 67 | 1011.5 |
| 20260509052007 | 55 | 135 | 0.0 | 3.0 | 0.00 | 0.00 | 0.00 | 66 | 1011.7 |
| 20260509051505 | 55 | 135 | 0.0 | 3.0 | 0.00 | 0.00 | 0.00 | 66 | 1011.8 |
| 20260509051005 | 54 | 135 | 1.0 | 3.0 | 0.00 | 0.00 | 0.00 | 67 | 1011.8 |
| 20260509050505 | 54 | 111 | 0.0 | 3.0 | 0.00 | 0.00 | 0.00 | 67 | 1011.9 |
| 20260509050006 | 53 | 161 | 1.0 | 3.0 | 0.00 | 0.00 | 0.00 | 68 | 1011.9 |
| 20260509045507 | 53 | 166 | 0.0 | 2.0 | 0.00 | 0.00 | 0.00 | 71 | 1011.8 |
| 20260509045004 | 53 | 166 | 0.0 | 0.0 | 0.00 | 0.00 | 0.00 | 72 | 1011.9 |
| 20260509044503 | 53 | 166 | 0.0 | 0.0 | 0.00 | 0.00 | 0.00 | 71 | 1011.8 |
| 20260509044001 | 54 | 166 | 0.0 | 1.0 | 0.00 | 0.00 | 0.00 | 70 | 1011.7 |
| 20260509043600 | 54 | 166 | 0.0 | 1.0 | 0.00 | 0.00 | 0.00 | 70 | 1011.8 |
| 20260509043101 | 54 | 166 | 0.0 | 2.0 | 0.00 | 0.00 | 0.00 | 69 | 1011.8 |
| 20260509042558 | 54 | 166 | 0.0 | 2.0 | 0.00 | 0.00 | 0.00 | 68 | 1011.7 |
| 20260509042058 | 55 | 166 | 0.0 | 1.0 | 0.00 | 0.00 | 0.00 | 67 | 1011.8 |
| 20260509041557 | 55 | 166 | 0.0 | 2.0 | 0.00 | 0.00 | 0.00 | 67 | 1011.8 |
| 20260509041057 | 55 | 166 | 0.0 | 4.0 | 0.00 | 0.00 | 0.00 | 67 | 1011.9 |
| 20260509040555 | 55 | 166 | 0.0 | 4.0 | 0.00 | 0.00 | 0.00 | 66 | 1011.8 |
| 20260509040054 | 56 | 166 | 0.0 | 1.0 | 0.00 | 0.00 | 0.00 | 66 | 1012.0 |